Find Starlink 30225

NORAD ID: 57449 Int'l Des: 2023-105 Owner: SPXS Country: US Constellation: starlink operational
LEOCIRCULAR

实时位置

正在加载3D地球...

关于 Starlink 30225

正在加载描述...

即将过境

Passes for default location (London). Set your location on the main map for personalized predictions.

高度历史

Loading altitude history...

两行轨道根数

1 57449U 23105V 26125.51290153 .00000163 00000-0 15429-4 0 9997
2 57449 42.9991 302.2115 0000987 275.5469 84.5270 15.27574307154299
Epoch: May 5, 2026 • Age: 10 hours

当前状态

高度 493.6 km
速度 7.62 km/s
星下点 -37.74°S, 30.21°W
发射日期 Jul 24, 2023
运行时间 2.7 years
类型 internet

技术详情

分类 Payload
质量 730.00 kg
干质量 700.00 kg
总质量 730.00 kg
长度 0.30 m
直径 4.10 m
跨度 29.00 m
形状 Box + pan
制造商 SPXS
平台类型 Starlink V2M
阶段状态 In Orbit
所有者/国家 SPXS/US

Most Searched